Location: Allie Creek
(37.5926°N, 89.8526°W)
Time: 15:23:12
(UTC+00:00)

H-2A R/B - Pass Details

Date: 26 September 2023
Orbit: 731 x 835 km, 98.2° (Epoch: 08 December)

Event Time Altitude Azimuth Distance (km) Brightness Sun altitude
Rises 11:13:51 0° 9° (N) 3,387 5.5 -8.1°
Reaches altitude 10° 11:16:14 10° 6° (N) 2,453 4.8 -7.6°
Maximum altitude 11:21:38 64° 286° (WNW) 919 2.2 -6.5°
Drops below altitude 10° 11:26:58 10° 206° (SSW) 2,425 4.3 -5.5°
Sets 11:29:19 0° 203° (SSW) 3,345 5.1 -5.0°
